Location: Wien
(48.2082°N, 16.3738°E)
Time: 13:18:19
(UTC+02:00)

Tiros 1 despin weight - Pass Details

Date: 16 September 2024
Orbit: 573 x 615 km, 48.2° (Epoch: 06 October)

Event Time Altitude Azimuth Distance (km) Brightness Sun altitude
Rises 04:14:37 0° 233° (SW) 2,863 - -22.6°
Reaches altitude 10° 04:16:58 10° 227° (SW) 1,966 - -22.2°
Exits shadow 04:20:44 44° 178° (S) 857 ? -21.7°
Maximum altitude 04:21:18 46° 154° (SSE) 825 ? -21.6°
Drops below altitude 10° 04:25:40 10° 82° (E) 1,984 ? -21.0°
Sets 04:28:03 0° 76° (ENE) 2,891 ? -20.6°
